Simultaneous Nadir Overpasses (SNOs) Predictions

Prediction of SNOs between AQUA and METOP-C Satellite Orbit:

Table of predicted SNOs for the next 14.0 days since TLE Epoch: 3/9/2024
Index Date (AQUA) Time (AQUA) Lat,Lon (AQUA) SZA (AQUA ) Date (METOP-C) Time (METOP-C) Lat,Lon (METOP-C) SZA (METOP-C ) Distance(km) Time Diff (sec)
1 03/11/2024 04:20:12 75.17, 112.56 78.68 03/11/2024 04:19:40 75.20, 112.60 78.71 3.22 32
2 03/11/2024 05:09:35 -75.22, -79.91 101.29 03/11/2024 05:10:22 -75.23, -79.99 101.29 2.56 47
3 03/13/2024 20:31:48 75.18,-130.31 77.62 03/13/2024 20:31:19 75.19,-130.35 77.64 1.27 29
4 03/13/2024 21:21:12 -75.27, 37.09 102.30 03/13/2024 21:22:00 -75.26, 37.20 102.31 3.14 48
5 03/16/2024 12:43:23 75.20, -13.23 76.59 03/16/2024 12:42:57 75.21, -13.19 76.60 1.37 26
6 03/16/2024 13:32:46 -75.24, 154.33 103.39 03/16/2024 13:33:39 -75.24, 154.22 103.39 3.07 53
7 03/19/2024 04:54:55 75.19, 103.96 75.51 03/19/2024 04:54:34 75.23, 103.95 75.55 3.81 21
8 03/19/2024 05:44:19 -75.27, -88.61 104.42 03/19/2024 05:45:16 -75.25, -88.65 104.44 2.36 57
9 03/21/2024 20:16:52 -74.60, 55.03 106.16 03/21/2024 20:15:47 -74.56, 51.84 106.12 94.35 65
10 03/21/2024 21:06:28 75.25,-139.04 74.51 03/21/2024 21:06:12 75.23,-138.94 74.50 3.09 16



Historial Predications of SNOs between AQUA and METOP-C
